This is the latest recevied weather packets stored in our database for station/object KA3ZXO. If no packets are shown the sender has not sent any weather packets the latest 1 day(s).
| Time | Temp. | Humidity | Pressure | Rain* | Wind** | Luminosity | Snow |
|---|---|---|---|---|---|---|---|
| 1836274377 | 19.44° C | 99% | 1017.8 hPa | 0 mm | 0 m/s | 0 W/m² | - |
| 1836274230 | 18.89° C | 99% | 1017.8 hPa | 0 mm | 0 m/s | 0 W/m² | - |
| 1778057071 | 18.33° C | 75% | 1011.1 hPa | 0 mm | 0.45 m/s, 218° | 0 W/m² | - |
| 1778056470 | 18.33° C | 75% | 1011.1 hPa | 0 mm | 0.45 m/s, 166° | 0 W/m² | - |
| 1778055870 | 18.33° C | 75% | 1011.3 hPa | 0 mm | 0.45 m/s, 176° | 0 W/m² | - |
| 1778055271 | 18.33° C | 75% | 1011.2 hPa | 0 mm | 0.89 m/s, 178° | 0 W/m² | - |
| 1778054670 | 18.33° C | 74% | 1011.2 hPa | 0 mm | 0.45 m/s, 72° | 0 W/m² | - |
| 1778054065 | 18.33° C | 74% | 1011.2 hPa | 0 mm | 0.89 m/s, 157° | 0 W/m² | - |
| 1778053464 | 18.89° C | 74% | 1011.2 hPa | 0 mm | 0.45 m/s, 150° | 0 W/m² | - |
| 1778052860 | 18.89° C | 73% | 1011.4 hPa | 0 mm | 0 m/s | 0 W/m² | - |
| 1778052260 | 18.89° C | 73% | 1011.5 hPa | 0 mm | 0.45 m/s, 194° | 0 W/m² | - |
| 1778051655 | 18.89° C | 73% | 1011.5 hPa | 0 mm | 0.45 m/s, 150° | 0 W/m² | - |
| 1778051055 | 18.89° C | 72% | 1011.5 hPa | 0 mm | 0 m/s | 0 W/m² | - |
| 1778050450 | 19.44° C | 72% | 1011.5 hPa | 0 mm | 0.89 m/s, 166° | 0 W/m² | - |
| 1778049847 | 19.44° C | 72% | 1011.6 hPa | 0 mm | 0 m/s | 0 W/m² | - |
| 1778049242 | 19.44° C | 71% | 1011.4 hPa | 0 mm | 0 m/s | 0 W/m² | - |
| 1778048638 | 19.44° C | 70% | 1011.5 hPa | 0 mm | 0.45 m/s, 144° | 0 W/m² | - |
| 1778048036 | 20° C | 69% | 1011.6 hPa | 0 mm | 0 m/s | 0 W/m² | - |
| 1778047432 | 20° C | 69% | 1011.6 hPa | 0 mm | 0.45 m/s, 146° | 0 W/m² | - |
| 1778046832 | 20° C | 68% | 1011.7 hPa | 0 mm | 0.45 m/s, 208° | 0 W/m² | - |
| 1778046231 | 20.56° C | 68% | 1011.8 hPa | 0 mm | 0.89 m/s, 165° | 0 W/m² | - |
| 1778045626 | 20.56° C | 67% | 1011.8 hPa | 0 mm | 0 m/s | 0 W/m² | - |
| 1778045022 | 20.56° C | 66% | 1012.1 hPa | 0 mm | 0 m/s | 0 W/m² | - |
| 1778044422 | 20.56° C | 66% | 1012.1 hPa | 0 mm | 0.89 m/s, 159° | 0 W/m² | - |
| 1778043816 | 21.11° C | 66% | 1012.2 hPa | 0 mm | 0.45 m/s, 168° | 0 W/m² | - |
* Rain latest hour (hover to see other rain measurements)
** Current wind speed in m/s (hover to see current wind gust speed)